Time,TemperatureF,DewpointF,PressureIn,WindDirection,WindDirectionDegrees,WindSpeedMPH,WindSpeedGustMPH,Humidity,HourlyPrecipIn,Conditions,Clouds,dailyrainin,SoftwareType,DateUTC
2013-06-15 00:12:00,35.4,29.0,30.37,SSW,202,2.0,-999.0,76,-99.99,,,0.00,weatherlink.com 1.10,2013-06-15 06:12:00,
2013-06-15 00:27:00,34.2,29.0,30.37,SSW,202,0.0,-999.0,80,-99.99,,,0.00,weatherlink.com 1.10,2013-06-15 06:27:00,
2013-06-15 00:42:00,34.0,28.0,30.36,SSW,202,0.0,-999.0,80,-99.99,,,0.00,weatherlink.com 1.10,2013-06-15 06:42:00,
2013-06-15 00:57:00,34.3,28.0,30.36,SSW,202,0.0,-999.0,79,-99.99,,,0.00,weatherlink.com 1.10,2013-06-15 06:57:00,
2013-06-15 01:11:00,33.7,28.0,30.36,SSW,202,0.0,-999.0,78,-99.99,,,0.00,weatherlink.com 1.10,2013-06-15 07:11:00,
2013-06-15 01:27:00,32.6,27.0,30.36,SSW,202,0.0,-999.0,79,-99.99,,,0.00,weatherlink.com 1.10,2013-06-15 07:27:00,
2013-06-15 01:43:00,32.5,27.0,30.36,SSW,202,0.0,-999.0,80,-99.99,,,0.00,weatherlink.com 1.10,2013-06-15 07:43:00,
2013-06-15 01:57:00,32.8,27.0,30.36,SSW,202,0.0,-999.0,79,-99.99,,,0.00,weatherlink.com 1.10,2013-06-15 07:57:00,
2013-06-15 02:12:00,32.6,26.0,30.36,SSW,202,0.0,-999.0,78,-99.99,,,0.00,weatherlink.com 1.10,2013-06-15 08:12:00,
2013-06-15 02:26:00,31.7,26.0,30.36,SSW,202,0.0,-999.0,79,-99.99,,,0.00,weatherlink.com 1.10,2013-06-15 08:26:00,
2013-06-15 02:42:00,31.5,26.0,30.36,SSW,202,0.0,-999.0,79,-99.99,,,0.00,weatherlink.com 1.10,2013-06-15 08:42:00,
2013-06-15 02:56:00,31.7,27.0,30.36,SSW,202,0.0,-999.0,81,-99.99,,,0.00,weatherlink.com 1.10,2013-06-15 08:56:00,
2013-06-15 03:11:00,31.1,25.0,30.36,SSW,202,1.0,-999.0,78,-99.99,,,0.00,weatherlink.com 1.10,2013-06-15 09:11:00,
2013-06-15 03:27:00,30.1,25.0,30.36,SSW,202,0.0,-999.0,80,-99.99,,,0.00,weatherlink.com 1.10,2013-06-15 09:27:00,
2013-06-15 03:43:00,29.4,24.0,30.36,SSW,202,0.0,-999.0,80,-99.99,,,0.00,weatherlink.com 1.10,2013-06-15 09:43:00,
2013-06-15 03:57:00,29.6,25.0,30.36,SSW,202,0.0,-999.0,83,-99.99,,,0.00,weatherlink.com 1.10,2013-06-15 09:57:00,
2013-06-15 04:12:00,30.6,25.0,30.36,SSW,202,1.0,-999.0,81,-99.99,,,0.00,weatherlink.com 1.10,2013-06-15 10:12:00,
2013-06-15 04:26:00,30.1,25.0,30.36,SSW,202,0.0,-999.0,80,-99.99,,,0.00,weatherlink.com 1.10,2013-06-15 10:26:00,
2013-06-15 04:42:00,29.2,24.0,30.36,SSW,202,2.0,-999.0,81,-99.99,,,0.00,weatherlink.com 1.10,2013-06-15 10:42:00,
2013-06-15 04:57:00,29.2,24.0,30.36,SSW,202,0.0,-999.0,81,-99.99,,,0.00,weatherlink.com 1.10,2013-06-15 10:57:00,
2013-06-15 05:12:00,29.8,25.0,30.36,SSW,202,0.0,-999.0,81,-99.99,,,0.00,weatherlink.com 1.10,2013-06-15 11:12:00,
2013-06-15 05:27:00,28.7,23.0,30.37,SSW,202,1.0,-999.0,79,-99.99,,,0.00,weatherlink.com 1.10,2013-06-15 11:27:00,
2013-06-15 05:41:00,28.8,24.0,30.37,SSW,202,0.0,-999.0,82,-99.99,,,0.00,weatherlink.com 1.10,2013-06-15 11:41:00,
2013-06-15 05:57:00,29.1,24.0,30.37,SSW,202,1.0,-999.0,81,-99.99,,,0.00,weatherlink.com 1.10,2013-06-15 11:57:00,
2013-06-15 06:13:00,29.3,24.0,30.38,SSW,202,0.0,-999.0,82,-99.99,,,0.00,weatherlink.com 1.10,2013-06-15 12:13:00,
2013-06-15 06:27:00,31.6,26.0,30.38,SSW,202,0.0,-999.0,81,-99.99,,,0.00,weatherlink.com 1.10,2013-06-15 12:27:00,
2013-06-15 06:42:00,33.0,27.0,30.38,SSW,202,0.0,-999.0,78,-99.99,,,0.00,weatherlink.com 1.10,2013-06-15 12:42:00,
2013-06-15 06:57:00,35.3,29.0,30.38,SSW,202,0.0,-999.0,77,-99.99,,,0.00,weatherlink.com 1.10,2013-06-15 12:57:00,
2013-06-15 07:12:00,38.9,30.0,30.38,SSW,202,0.0,-999.0,70,-99.99,,,0.00,weatherlink.com 1.10,2013-06-15 13:12:00,
2013-06-15 07:27:00,40.7,30.0,30.38,SSW,202,0.0,-999.0,67,-99.99,,,0.00,weatherlink.com 1.10,2013-06-15 13:27:00,
2013-06-15 07:42:00,43.5,33.0,30.38,SSW,202,0.0,-999.0,66,-99.99,,,0.00,weatherlink.com 1.10,2013-06-15 13:42:00,
2013-06-15 07:57:00,46.2,33.0,30.37,SSW,202,0.0,-999.0,61,-99.99,,,0.00,weatherlink.com 1.10,2013-06-15 13:57:00,
2013-06-15 08:11:00,48.7,33.0,30.37,SSW,202,0.0,-999.0,55,-99.99,,,0.00,weatherlink.com 1.10,2013-06-15 14:11:00,
2013-06-15 08:28:00,50.6,32.0,30.37,SSW,202,0.0,-999.0,50,-99.99,,,0.00,weatherlink.com 1.10,2013-06-15 14:28:00,
2013-06-15 08:42:00,51.7,31.0,30.37,SSW,202,0.0,-999.0,45,-99.99,,,0.00,weatherlink.com 1.10,2013-06-15 14:42:00,
2013-06-15 08:57:00,53.2,32.0,30.36,SSW,202,0.0,-999.0,45,-99.99,,,0.00,weatherlink.com 1.10,2013-06-15 14:57:00,
2013-06-15 09:12:00,54.5,33.0,30.36,SSW,202,1.0,-999.0,44,-99.99,,,0.00,weatherlink.com 1.10,2013-06-15 15:12:00,
2013-06-15 09:26:00,55.9,33.0,30.35,North,349,2.0,-999.0,43,-99.99,,,0.00,weatherlink.com 1.10,2013-06-15 15:26:00,
2013-06-15 09:42:00,56.3,31.0,30.35,WNW,299,1.0,-999.0,39,-99.99,,,0.00,weatherlink.com 1.10,2013-06-15 15:42:00,
2013-06-15 09:56:00,57.3,32.0,30.34,WNW,293,4.0,-999.0,39,-99.99,,,0.00,weatherlink.com 1.10,2013-06-15 15:56:00,
2013-06-15 10:12:00,58.6,32.0,30.34,NNW,336,1.0,-999.0,36,-99.99,,,0.00,weatherlink.com 1.10,2013-06-15 16:12:00,
2013-06-15 10:27:00,59.4,31.0,30.34,North,355,4.0,-999.0,34,-99.99,,,0.00,weatherlink.com 1.10,2013-06-15 16:27:00,
2013-06-15 10:42:00,60.1,33.0,30.33,NNW,341,4.0,-999.0,36,-99.99,,,0.00,weatherlink.com 1.10,2013-06-15 16:42:00,
2013-06-15 10:58:00,60.0,32.0,30.32,North,355,4.0,-999.0,35,-99.99,,,0.00,weatherlink.com 1.10,2013-06-15 16:58:00,
2013-06-15 11:12:00,61.0,32.0,30.32,NW,326,4.0,-999.0,34,-99.99,,,0.00,weatherlink.com 1.10,2013-06-15 17:12:00,
2013-06-15 11:26:00,62.4,33.0,30.32,West,276,2.0,-999.0,33,-99.99,,,0.00,weatherlink.com 1.10,2013-06-15 17:26:00,
2013-06-15 11:43:00,62.6,31.0,30.31,WNW,282,2.0,-999.0,31,-99.99,,,0.00,weatherlink.com 1.10,2013-06-15 17:43:00,
2013-06-15 11:57:00,63.9,32.0,30.31,WNW,283,5.0,-999.0,30,-99.99,,,0.00,weatherlink.com 1.10,2013-06-15 17:57:00,
2013-06-15 12:12:00,64.2,33.0,30.31,WSW,239,5.0,-999.0,31,-99.99,,,0.00,weatherlink.com 1.10,2013-06-15 18:12:00,
2013-06-15 12:27:00,64.5,32.0,30.30,SW,216,7.0,-999.0,30,-99.99,,,0.00,weatherlink.com 1.10,2013-06-15 18:27:00,
2013-06-15 12:42:00,65.6,34.0,30.30,SSW,200,3.0,-999.0,31,-99.99,,,0.00,weatherlink.com 1.10,2013-06-15 18:42:00,
2013-06-15 12:57:00,66.9,34.0,30.29,SW,219,12.0,-999.0,30,-99.99,,,0.00,weatherlink.com 1.10,2013-06-15 18:57:00,
2013-06-15 13:12:00,66.8,33.0,30.29,ESE,117,0.0,-999.0,28,-99.99,,,0.00,weatherlink.com 1.10,2013-06-15 19:12:00,
2013-06-15 13:27:00,68.0,32.0,30.28,West,276,12.0,-999.0,26,-99.99,,,0.00,weatherlink.com 1.10,2013-06-15 19:27:00,
2013-06-15 13:42:00,68.8,29.0,30.28,SSW,196,2.0,-999.0,23,-99.99,,,0.00,weatherlink.com 1.10,2013-06-15 19:42:00,
2013-06-15 13:56:00,69.0,25.0,30.28,WSW,257,1.0,-999.0,19,-99.99,,,0.00,weatherlink.com 1.10,2013-06-15 19:56:00,
2013-06-15 14:12:00,70.0,27.0,30.27,WNW,288,3.0,-999.0,20,-99.99,,,0.00,weatherlink.com 1.10,2013-06-15 20:12:00,
2013-06-15 14:28:00,70.3,28.0,30.27,SW,226,6.0,-999.0,21,-99.99,,,0.00,weatherlink.com 1.10,2013-06-15 20:28:00,
2013-06-15 14:42:00,70.1,29.0,30.27,WSW,239,9.0,-999.0,22,-99.99,,,0.00,weatherlink.com 1.10,2013-06-15 20:42:00,
2013-06-15 14:57:00,70.8,29.0,30.26,WNW,282,10.0,-999.0,21,-99.99,,,0.00,weatherlink.com 1.10,2013-06-15 20:57:00,
2013-06-15 15:13:00,70.9,31.0,30.25,WSW,257,7.0,-999.0,23,-99.99,,,0.00,weatherlink.com 1.10,2013-06-15 21:13:00,
2013-06-15 15:27:00,71.5,34.0,30.25,SW,232,9.0,-999.0,25,-99.99,,,0.00,weatherlink.com 1.10,2013-06-15 21:27:00,
2013-06-15 15:41:00,71.3,34.0,30.24,West,267,11.0,-999.0,25,-99.99,,,0.00,weatherlink.com 1.10,2013-06-15 21:41:00,
2013-06-15 15:58:00,71.5,35.0,30.24,SSW,211,17.0,-999.0,26,-99.99,,,0.00,weatherlink.com 1.10,2013-06-15 21:58:00,
2013-06-15 16:12:00,71.6,33.0,30.23,WSW,239,10.0,-999.0,24,-99.99,,,0.00,weatherlink.com 1.10,2013-06-15 22:12:00,
2013-06-15 16:26:00,72.0,35.0,30.23,WSW,249,7.0,-999.0,26,-99.99,,,0.00,weatherlink.com 1.10,2013-06-15 22:26:00,
2013-06-15 16:42:00,72.3,37.0,30.23,WSW,253,13.0,-999.0,28,-99.99,,,0.00,weatherlink.com 1.10,2013-06-15 22:42:00,
2013-06-15 16:57:00,72.0,33.0,30.22,SW,225,7.0,-999.0,24,-99.99,,,0.00,weatherlink.com 1.10,2013-06-15 22:57:00,
2013-06-15 17:11:00,72.4,36.0,30.22,SW,220,11.0,-999.0,26,-99.99,,,0.00,weatherlink.com 1.10,2013-06-15 23:11:00,
2013-06-15 17:27:00,72.3,35.0,30.21,WSW,252,7.0,-999.0,25,-99.99,,,0.00,weatherlink.com 1.10,2013-06-15 23:27:00,
2013-06-15 17:41:00,71.8,34.0,30.21,SW,218,6.0,-999.0,25,-99.99,,,0.00,weatherlink.com 1.10,2013-06-15 23:41:00,
2013-06-15 17:59:00,72.1,35.0,30.20,WSW,250,6.0,-999.0,26,-99.99,,,0.00,weatherlink.com 1.10,2013-06-15 23:59:00,
2013-06-15 18:12:00,72.3,33.0,30.20,SSW,213,2.0,-999.0,24,-99.99,,,0.00,weatherlink.com 1.10,2013-06-16 00:12:00,
2013-06-15 18:27:00,72.5,36.0,30.20,SW,229,2.0,-999.0,26,-99.99,,,0.00,weatherlink.com 1.10,2013-06-16 00:27:00,
2013-06-15 18:42:00,72.3,35.0,30.20,SW,222,4.0,-999.0,26,-99.99,,,0.00,weatherlink.com 1.10,2013-06-16 00:42:00,
2013-06-15 18:57:00,72.3,35.0,30.20,SW,223,1.0,-999.0,25,-99.99,,,0.00,weatherlink.com 1.10,2013-06-16 00:57:00,
2013-06-15 19:12:00,72.0,34.0,30.20,WSW,238,2.0,-999.0,25,-99.99,,,0.00,weatherlink.com 1.10,2013-06-16 01:12:00,
2013-06-15 19:26:00,72.4,40.0,30.20,WSW,240,3.0,-999.0,31,-99.99,,,0.00,weatherlink.com 1.10,2013-06-16 01:26:00,
2013-06-15 19:42:00,68.6,41.0,30.20,NE,40,10.0,-999.0,37,-99.99,,,0.00,weatherlink.com 1.10,2013-06-16 01:42:00,
2013-06-15 19:56:00,65.9,40.0,30.19,NNE,30,8.0,-999.0,39,-99.99,,,0.00,weatherlink.com 1.10,2013-06-16 01:56:00,
2013-06-15 20:27:00,62.7,39.0,30.19,NE,37,6.0,-999.0,42,-99.99,,,0.00,weatherlink.com 1.10,2013-06-16 02:27:00,
2013-06-15 20:42:00,61.1,39.0,30.20,NE,45,7.0,-999.0,44,-99.99,,,0.00,weatherlink.com 1.10,2013-06-16 02:42:00,
2013-06-15 20:57:00,59.9,37.0,30.20,ENE,59,4.0,-999.0,43,-99.99,,,0.00,weatherlink.com 1.10,2013-06-16 02:57:00,
2013-06-15 21:11:00,58.1,36.0,30.20,ENE,63,2.0,-999.0,44,-99.99,,,0.00,weatherlink.com 1.10,2013-06-16 03:11:00,
2013-06-15 21:28:00,56.9,35.0,30.21,ENE,63,2.0,-999.0,44,-99.99,,,0.00,weatherlink.com 1.10,2013-06-16 03:28:00,
2013-06-15 21:43:00,54.6,36.0,30.22,ENE,63,0.0,-999.0,49,-99.99,,,0.00,weatherlink.com 1.10,2013-06-16 03:43:00,
2013-06-15 21:57:00,52.8,36.0,30.22,ENE,63,1.0,-999.0,53,-99.99,,,0.00,weatherlink.com 1.10,2013-06-16 03:57:00,
2013-06-15 22:11:00,52.1,37.0,30.23,ENE,64,0.0,-999.0,56,-99.99,,,0.00,weatherlink.com 1.10,2013-06-16 04:11:00,
2013-06-15 22:26:00,51.8,36.0,30.23,ENE,65,0.0,-999.0,56,-99.99,,,0.00,weatherlink.com 1.10,2013-06-16 04:26:00,
2013-06-15 22:41:00,50.7,37.0,30.23,ENE,65,0.0,-999.0,59,-99.99,,,0.00,weatherlink.com 1.10,2013-06-16 04:41:00,
2013-06-15 22:56:00,48.8,35.0,30.23,ENE,65,1.0,-999.0,60,-99.99,,,0.00,weatherlink.com 1.10,2013-06-16 04:56:00,
2013-06-15 23:11:00,45.2,34.0,30.23,ENE,65,0.0,-999.0,66,-99.99,,,0.00,weatherlink.com 1.10,2013-06-16 05:11:00,
2013-06-15 23:26:00,44.9,34.0,30.23,ENE,65,0.0,-999.0,66,-99.99,,,0.00,weatherlink.com 1.10,2013-06-16 05:26:00,
2013-06-15 23:41:00,44.7,33.0,30.23,ENE,65,1.0,-999.0,65,-99.99,,,0.00,weatherlink.com 1.10,2013-06-16 05:41:00,
2013-06-15 23:56:00,43.6,33.0,30.23,ENE,65,1.0,-999.0,67,-99.99,,,0.00,weatherlink.com 1.10,2013-06-16 05:56:00,